Location: ???????
(31.2154°N, 45.5576°E)
Time: 12:20:07
(UTC+00:00)

Daily predictions for brighter satellites

Satellite Brightness Start Highest point End
(mag) Time Altitude Azimuth Time Altitude Azimuth Time Altitude Azimuth
Cosmos 614 Rocket 3.9 16:00:22 10° S 16:05:27 69° ESE 16:10:36 10° NNE
YAOGAN 1 3.3 16:01:58 10° S 16:06:12 57° W 16:10:28 10° NNW
Cosmos 1833 Rocket 2.7 16:02:01 10° S 16:07:34 71° ESE 16:13:10 10° NNE
Cosmos 1656 4.4 16:03:31 10° N 16:08:34 36° ENE 16:13:38 10° SE
USA 267 3.9 16:06:03 10° ENE 16:11:45 31° SE 16:17:24 10° S
Cosmos 405 4.2 16:09:37 10° NNW 16:12:56 43° W 16:16:14 10° SSW
CZ-2C R/B 2.9 16:10:23 10° SSE 16:15:14 87° ENE 16:19:59 10° N
USA 186 2.5 16:14:18 10° SE 16:16:00 19° ENE 16:17:41 10° NNE
H-2A R/B 2.0 16:11:30 10° SSE 16:16:39 73° ENE 16:21:41 10° N
Cosmos 1697 Rocket 4.0 16:13:37 10° N 16:18:00 23° ENE 16:22:09 11° ESE
Cosmos 2228 Rocket 3.4 16:15:55 10° N 16:20:10 46° E 16:24:22 10° SSE
SL-8 R/B 4.2 16:15:30 10° NW 16:20:12 50° NE 16:24:31 12° ESE
Sich 1 3.7 16:16:37 10° SSE 16:20:36 34° E 16:24:38 10° NNE
Cosmos 1862 3.3 16:17:54 10° S 16:21:53 62° E 16:25:53 10° NNE
SJ-6B 3.9 16:19:08 10° SE 16:22:37 28° ENE 16:26:05 10° NNE
Cosmos 1727 Rocket 4.2 16:17:28 10° N 16:23:42 55° E 16:29:52 10° SSE
Cosmos 1743 Rocket 4.3 16:20:09 10° SSW 16:24:29 58° W 16:28:55 10° N
Shenzhou-11 Module 3.9 16:30:23 10° NNW 16:31:45 14° NNE 16:33:07 10° NE
Resurs 01 Rocket 3.5 16:32:39 12° E 16:33:59 13° ENE 16:36:01 10° NE
Cosmos 1821 Rocket 4.0 16:32:34 10° S 16:38:34 62° E 16:44:40 10° NNE
IRIDIUM 104 4.3 16:34:49 10° SSE 16:39:56 61° E 16:45:04 10° N
Cosmos 1812 3.2 16:38:28 10° N 16:42:06 39° E 16:44:29 18° SE
Cosmos 389 Rocket 2.6 16:39:26 10° N 16:42:49 51° E 16:45:14 17° SSE
Meteor 1-10 Rocket 4.3 16:38:44 10° N 16:44:26 62° E 16:50:12 10° SSE
Cosmos 1867 3.8 16:39:27 10° SSW 16:44:51 74° WNW 16:50:18 10° NNE
Cosmos 1441 Rocket 3.6 16:44:37 10° SSW 16:48:22 62° W 16:52:06 10° N
IRIDIUM 114 4.2 16:43:52 10° S 16:49:02 77° E 16:54:15 10° N
DMSP B5D2-2 4.0 16:46:59 10° NNE 16:52:14 88° E 16:57:30 10° SSW
SL-08 RB Rocket 3.8 16:48:55 10° S 16:53:30 85° WSW 16:58:11 10° NNW
USA 238 DEB 3.5 16:48:02 10° SSW 16:54:34 83° ESE 17:01:20 10° NNE
USA 238 3.5 16:48:09 10° SSW 16:54:41 83° ESE 17:01:26 10° NNE
Cosmos 1666 Rocket 3.5 16:50:52 10° S 16:55:04 57° E 16:59:19 10° NNE
IRIDIUM 103 4.3 16:52:58 10° S 16:58:11 85° W 17:03:25 10° N
Cosmos 1954 Rocket 3.9 16:56:55 10° S 17:02:12 76° ESE 17:07:31 10° NNE
ARGOS 4.0 16:58:27 10° S 17:03:39 50° W 17:08:52 10° NNW
MOS 1 4.3 16:59:17 11° SSE 17:04:49 88° WSW 17:10:30 10° NNW
Cosmos 2239 Rocket 4.4 16:58:56 10° S 17:05:03 89° E 17:11:13 10° N
CENTAUR R/B 2.3 17:00:31 10° S 17:05:49 55° ESE 17:11:59 10° NE
Ariane Rocket 3.4 17:02:43 10° S 17:07:43 63° WSW 17:12:44 10° NNW
Resurs 1-3 3.8 17:06:15 33° SE 17:07:50 51° ENE 17:12:05 10° N
FREGAT/IRIS 3.5 17:07:51 24° SSW 17:09:00 38° W 17:11:30 10° NNW
Cosmos 1000 Rocket 4.4 17:03:05 10° N 17:09:17 72° E 17:13:56 18° SSE
Cosmos 2123 Rocket 4.4 17:05:19 10° N 17:11:12 42° E 17:13:34 30° SE
Cosmos 2082 Rocket 3.0 17:05:51 10° SW 17:11:24 54° WNW 17:16:59 10° N
Cosmos 220 Rocket 4.2 17:07:46 10° NNW 17:11:58 68° WSW 17:14:25 24° S
Yuri Rocket 3.3 17:07:51 10° WSW 17:12:04 43° SSE 17:12:37 40° SE
Cosmos 1605 Rocket 4.4 17:10:04 27° SE 17:12:38 40° E 17:18:15 10° NNE
CZ-2C R/B 3.4 17:08:16 10° N 17:13:18 52° WNW 17:18:24 10° SSW
Skynet4D Del rocket 3.8 17:10:45 10° W 17:15:55 53° S 17:17:43 37° SE
OE (NEXTSAT) 4.1 17:15:41 10° NW 17:19:11 89° NE 17:19:22 79° SE
Cosmos 2369 3.6 17:14:49 10° NNW 17:20:33 75° ENE 17:22:59 36° SSE
Cosmos 1633 Rocket 3.1 17:19:58 13° S 17:23:49 76° W 17:28:14 10° N
MetOp-A 4.4 17:21:46 18° S 17:25:43 67° WSW 17:31:04 10° NNW
Lacrosse 5 4.2 17:24:01 10° NNE 17:25:44 12° NE 17:27:15 10° NE
Cosmos 2278 3.9 17:22:08 10° N 17:27:43 55° ENE 17:29:05 44° ESE
Cosmos 2322 Rocket 4.4 17:28:01 10° NE 17:28:40 10° NE 17:28:52 10° ENE
BREEZE-M DEB (TANK) 1.9 17:25:56 10° NW 17:29:16 61° NW 17:29:16 61° NW
Intercosmos 25 3.8 17:31:28 10° NNW 17:34:38 45° W 17:35:01 42° WSW
SL-24 R/B - RUBIN 2 4.3 17:28:10 10° NNW 17:34:39 90° SW 17:36:37 45° SSE
Cosmos 1818 4.0 17:30:45 10° NW 17:36:05 56° WSW 17:38:14 34° S
Cosmos 2084 Rocket 3.5 17:35:58 10° SW 17:40:05 73° WNW 17:44:18 10° NNE
ATLAS 5 CENTAUR R/B 3.9 17:34:52 10° NW 17:40:31 35° WSW 17:45:23 16° S
Cosmos 921 Rocket 4.2 17:41:34 10° N 17:44:07 29° NNE 17:44:07 29° NNE
OBJECT-B 2.4 17:46:57 32° W 17:46:57 32° W 17:49:50 10° NNW
Cosmos 1707 Rocket 4.4 17:42:53 10° NNW 17:47:00 46° W 17:48:15 35° SW
Meteor 1-20 Rocket 4.3 17:45:23 29° S 17:48:27 84° W 17:54:20 10° N
H-2A R/B 3.5 17:44:34 10° N 17:48:22 72° NNW 17:48:22 72° NNW
Cosmos 1980 Rocket 2.0 17:43:11 10° NNW 17:48:51 76° ENE 17:49:29 68° ESE
Cosmos 1470 Rocket 3.8 17:51:08 64° WSW 17:51:30 68° W 17:55:53 10° N
Genesis I 4.1 17:49:57 10° NNW 17:52:42 45° NNW 17:52:42 45° NNW
USA 267 3.8 17:48:27 10° NNE 17:54:49 56° NW 18:01:10 10° WSW
NOSS 3-2 (C) 4.0 17:50:15 10° SW 17:55:35 51° WNW 18:01:33 10° NNE
Cosmos 1153 Rocket 4.3 18:00:10 66° E 18:00:10 66° E 18:06:14 10° NNE
Meteor 2-20 Rocket 4.4 17:54:18 10° N 18:00:29 84° W 18:01:45 59° S
Cosmos 1697 Rocket 3.8 17:56:52 10° NW 18:02:00 38° WSW 18:03:55 29° SW
SPOT 1/Viking Rocket 4.3 18:04:26 41° NE 18:04:26 41° NE 18:08:21 10° N
Resurs 01 Rocket 2.6 18:10:13 43° W 18:10:13 43° W 18:14:15 10° NNW
Cosmos 1850 Rocket 4.3 18:10:09 53° WSW 18:11:08 63° WNW 18:16:22 10° N
ERS-1 Rocket 4.4 18:16:12 28° NNE 18:16:12 28° NNE 18:18:53 10° N
ATLAS 3B R/B 3.0 18:27:32 52° NE 18:27:32 52° NE 18:32:22 10° NNE
CZ-3A R/B 4.2 18:13:22 10° W 18:35:15 40° SW 18:36:31 39° SSW
SL-16 R/B 3.4 18:48:56 10° NNW 18:52:22 38° N 18:52:22 38° N
Terra 4.1 19:01:13 20° N 19:01:13 20° N 19:02:42 10° N
Lacrosse 5 4.0 19:04:25 10° NNW 19:06:26 24° NNW 19:06:26 24° NNW
Cosmos 2322 Rocket 3.7 19:07:43 10° NNW 19:10:41 32° NNW 19:10:41 32° NNW
Cosmos 2360 Rocket 4.1 19:18:35 10° N 19:20:54 24° N 19:20:54 24° N
CZ-2D R/B 4.5 22:05:22 10° NNE 22:06:57 19° NNE 22:06:57 19° NNE
Cosmos 2263 Rocket 3.9 22:49:30 29° NNE 22:49:30 29° NNE 22:52:05 10° NNE
Resurs 1-4 Rocket 4.2 22:42:39 10° N 22:44:27 22° N 22:44:27 22° N
SL-16 R/B 3.7 22:52:56 36° N 22:52:56 36° N 22:56:24 10° NNW
Cosmos 1844 Rocket 4.4 23:10:44 24° E 23:10:44 24° E 23:14:40 10° NE
ADEOS II 3.3 23:16:30 10° NNE 23:19:38 37° N 23:19:38 37° N
Cosmos 1603 4.4 23:26:19 10° NNW 23:30:32 49° N 23:30:32 49° N
SL-08 R/B 4.1 23:41:46 52° ENE 23:41:46 52° ENE 23:46:22 10° N
Meteor 2-21 Rocket 4.4 23:40:20 10° N 23:46:25 77° E 23:46:52 73° SE
CZ-2D R/B 4.3 23:46:49 10° NNW 23:48:16 14° NW 23:48:16 14° NW
ARIANE 5 R/B 2.8 23:46:23 10° NNE 23:50:53 66° N 23:50:53 66° N
Cosmos 1943 3.3 23:46:05 10° NNW 23:50:49 65° NNW 23:50:49 65° NNW
Meteor 2-14 Rocket 4.4 23:47:08 10° N 23:52:38 69° NW 23:52:38 69° NW
